Location: Augustenthal
(51.7167°N, 10.2833°E)
Time: 08:31:48
(UTC+00:00)

Spot 4 - Pass Details

Date: 18 May 2021
Orbit: 703 x 724 km, 98.3° (Epoch: 20 June)

Event Time Altitude Azimuth Distance (km) Brightness Sun altitude
Exits shadow 22:24:53 32° 181° (S) 1,224 4.5 -17.7°
Maximum altitude 22:27:07 71° 257° (WSW) 768 3.9 -17.7°
Drops below altitude 10° 22:31:59 10° 341° (NNW) 2,217 7.7 -17.9°
Sets 22:34:16 0° 344° (NNW) 3,140 8.9 -18.0°
